[[{"header":{"parameterUnit":"m.s-1","parameterCategory":1,"la1":30.2991,"la2":30.254,"lo1":-89.0895,"lo2":-89.0444,"dy":0.0017,"dx":0.0017,"nx":28,"ny":28,"refTime":"2024-06-20T21:00:00:Z","depth":0,"parameterNumber":2,"parameterNumberName":"U-component_of_WINDS"},"data":[0,0,0,0,0,0,0,0,0,0,0,0,0,0,0,0,0,0,0,0,0,0,0,0,0,0,0,0,0,0,0,0,0,0,0,0,0,0,0,0,0,0,0,0,0,0,0,0,0,0,0,0,0,0,0,0,0,0,0.812,0.812,0,0.8172,0.8172,0.8173,0.8192,0.8192,0.8192,0.8192,0.8244,0.8245,0.8247,0,0,0,0,0,0,0,0,0,0,0,0,0,0.8036,0.8038,0.812,0.812,0.8121,0.8172,0.8172,0.8173,0.8192,0.8192,0.8192,0.8192,0.8243,0.8245,0.8247,0,0,0,0,0,0,0,0,0,0,0,0,0,0.8079,0.8038,0.8119,0.8137,0.8139,0.8171,0.8172,0.8173,0.8192,0.8192,0.8192,0.8192,0.8243,0.8245,0.8247,0.8267,0,0,0.8254,0.8255,0,0,0,0,0,0,0,0,0.8076,0.8082,0.8133,0.8135,0.8138,0.8175,0.8162,0.8204,0.8192,0.8172,0.8192,0.8191,0.8221,0.8225,0.8236,0.8269,0.8271,0.8255,0.8256,0.8257,0.8258,0,0,0,0,0,0,0,0.8073,0.808,0.814,0.8134,0.8137,0.8141,0.8147,0.817,0.8197,0.8174,0.8175,0.8181,0.8222,0.8233,0.8237,0.8272,0.8255,0.8257,0.8258,0.8259,0.8324,0.8325,0,0,0,0,0,0,0.8068,0.8077,0.8138,0.8142,0.8106,0.8143,0.815,0.8163,0.8197,0.8202,0.8181,0.8182,0.8229,0.8234,0.8239,0.8264,0.8257,0.8259,0.8261,0.8324,0.8324,0.8325,0,0,0,0,0,0,0.8066,0.8073,0.8136,0.811,0.8118,0.8145,0.816,0.8165,0.8176,0.8203,0.8208,0.8187,0.8229,0.8236,0.826,0.8266,0.826,0.8262,0.8324,0.8324,0.8325,0.8313,0,0,0,0,0,0,0.8063,0.8072,0.808,0.811,0.812,0.8156,0.8161,0.8166,0.818,0.8181,0.821,0.8215,0.823,0.8256,0.8262,0.8269,0.8264,0.8323,0.8324,0.8324,0.8313,0.8313,0.8314,0,0,0,0,0,0.806,0.8074,0.808,0.8087,0.813,0.8157,0.8162,0.818,0.818,0.8188,0.8206,0.8214,0.8264,0.8258,0.8265,0.8273,0.8323,0.8324,0.8324,0.8313,0.8313,0.8314,0,0,0,0,0,0,0.8043,0.8078,0.8085,0.8109,0.813,0.816,0.817,0.8179,0.82,0.82,0.8221,0.8227,0.825,0.8264,0.8257,0.8293,0.8294,0.8296,0.8283,0.8284,0.8284,0.828,0.8266,0,0,0,0,0,0.8043,0.8062,0.8091,0.811,0.812,0.8143,0.8156,0.8168,0.819,0.8198,0.8218,0.8238,0.8259,0.8272,0.8293,0.8316,0.8322,0.8324,0.8324,0.8324,0.8326,0.8339,0.834,0.8327,0.8327,0.8327,0,0,0.8041,0.8062,0.8073,0.8107,0.8124,0.8144,0.815,0.8171,0.8185,0.8201,0.8225,0.824,0.8265,0.8289,0.83,0.8301,0.8331,0.8325,0.8325,0.8327,0.834,0.8341,0.8342,0.8328,0.8328,0.8328,0,0,0.8048,0.8066,0.8084,0.8101,0.8128,0.8143,0.8147,0.8176,0.8187,0.8212,0.8224,0.8242,0.8277,0.8294,0.8307,0.8322,0.833,0.8328,0.8328,0.8341,0.8342,0.8343,0.8348,0.835,0.8329,0.8329,0.8329,0,0.8042,0.8072,0.8091,0.8111,0.8126,0.8142,0.816,0.8176,0.8207,0.8217,0.8218,0.8262,0.828,0.8308,0.8312,0.8322,0.8327,0.8324,0.834,0.8342,0.8343,0.8348,0.835,0.8329,0.8329,0.8329,0.8329,0,0.8064,0.8085,0.8096,0.8126,0.8142,0.8161,0.8183,0.8196,0.8207,0.8222,0.8247,0.827,0.8295,0.8303,0.8313,0.8332,0.8332,0.8336,0.8337,0.8343,0.8348,0.8351,0.8328,0.8328,0.8328,0.8329,0,0,0.8061,0.8103,0.8107,0.8121,0.8152,0.8168,0.8187,0.8213,0.8224,0.8245,0.8262,0.8292,0.8296,0.8311,0.8324,0.8335,0.8345,0.8338,0.8339,0.8339,0.8368,0.8364,0.8366,0.8351,0.8352,0.8352,0.8366,0,0.8072,0.8108,0.8126,0.8154,0.8173,0.8189,0.8206,0.8227,0.8242,0.826,0.8277,0.8298,0.8302,0.8312,0.8324,0.8341,0.8351,0.8341,0.8367,0.8368,0.836,0.8369,0.8365,0.8377,0.8368,0.8368,0.8369,0,0.8089,0.8111,0.8141,0.817,0.8179,0.8194,0.8219,0.8236,0.826,0.827,0.8287,0.83,0.8321,0.8321,0.835,0.8343,0.8355,0.8365,0.8366,0.8369,0.8368,0.8372,0.8381,0.8383,0.8372,0.8372,0.8371,0,0.8084,0.8121,0.8144,0.8155,0.819,0.82,0.8215,0.8238,0.8252,0.8274,0.8284,0.8307,0.832,0.8339,0.8357,0.8355,0.8385,0.8386,0.8394,0.8393,0.8399,0.8398,0.841,0.8407,0.8407,0.8407,0.8407,0,0.8094,0.8112,0.8142,0.8156,0.8176,0.8197,0.8216,0.8232,0.8253,0.8271,0.8286,0.8302,0.8325,0.8344,0.8359,0.8381,0.8387,0.8396,0.8399,0.8394,0.8393,0.8402,0.8401,0.8407,0.8407,0.8407,0.8407,0,0.8091,0.8112,0.8138,0.8169,0.8177,0.8191,0.8217,0.8231,0.8247,0.8269,0.8275,0.83,0.8324,0.8344,0.8375,0.8385,0.8407,0.8412,0.8399,0.8401,0.8407,0.8406,0.8425,0.8428,0.8423,0.8423,0.8423,0,0.8096,0.811,0.8143,0.8155,0.817,0.819,0.8205,0.8226,0.8241,0.827,0.828,0.8305,0.8325,0.8361,0.8382,0.8406,0.8411,0.8416,0.8414,0.8409,0.8411,0.841,0.8411,0.8416,0.8416,0.8415,0.8415,0,0.8102,0.8112,0.8133,0.8158,0.8175,0.8195,0.8216,0.8226,0.8251,0.8267,0.8291,0.8306,0.8338,0.8362,0.8388,0.8403,0.8413,0.8416,0.8419,0.8413,0.8405,0.841,0.8398,0.8415,0.8415,0.8415,0.8415,0.8415,0.8104,0.8117,0.8142,0.8165,0.8183,0.8202,0.8217,0.8235,0.8256,0.8283,0.8294,0.8319,0.8343,0.8379,0.8394,0.8413,0.8415,0.8419,0.842,0.8421,0.842,0.8403,0.8418,0.8418,0.8418,0.8418,0.8418,0,0.8111,0.8128,0.8149,0.8177,0.8195,0.8204,0.8228,0.8242,0.8263,0.8285,0.8305,0.8333,0.8356,0.8379,0.8404,0.8415,0.8421,0.8421,0.842,0.8423,0.8417,0.8412,0.8416,0.8416,0.8416,0.8416,0.8416,0.8416,0.8117,0.814,0.8152,0.8185,0.8202,0.8226,0.8238,0.8256,0.8274,0.8304,0.8324,0.8339,0.8361,0.8388,0.841,0.8416,0.8424,0.8423,0.843,0.8424,0.8424,0.8424,0.8419,0.8425,0.8425,0.8435,0.8435,0.8436]},{"header":{"parameterUnit":"m.s-1","parameterCategory":1,"la1":30.2991,"la2":30.254,"lo1":-89.0895,"lo2":-89.0444,"dy":0.0017,"dx":0.0017,"nx":28,"ny":28,"refTime":"2024-06-20T21:00:00:Z","depth":0,"parameterNumber":3,"parameterNumberName":"V-component_of_WINDS"},"data":[0,0,0,0,0,0,0,0,0,0,0,0,0,0,0,0,0,0,0,0,0,0,0,0,0,0,0,0,0,0,0,0,0,0,0,0,0,0,0,0,0,0,0,0,0,0,0,0,0,0,0,0,0,0,0,0,0,0,-2.1913,-2.1914,0,-2.1996,-2.1997,-2.1997,-2.2014,-2.2013,-2.2012,-2.2012,-2.2095,-2.2098,-2.2101,0,0,0,0,0,0,0,0,0,0,0,0,0,-2.1769,-2.1772,-2.1913,-2.1914,-2.1915,-2.1995,-2.1997,-2.1998,-2.2014,-2.2013,-2.2012,-2.2011,-2.2095,-2.2098,-2.2101,0,0,0,0,0,0,0,0,0,0,0,0,0,-2.184,-2.1773,-2.1913,-2.1933,-2.1935,-2.1995,-2.1997,-2.1998,-2.2014,-2.2013,-2.2012,-2.2011,-2.2093,-2.2098,-2.2102,-2.2147,0,0,-2.2115,-2.2117,0,0,0,0,0,0,0,0,-2.1836,-2.1845,-2.1929,-2.1932,-2.1935,-2.1993,-2.1977,-2.2048,-2.2014,-2.1984,-2.2012,-2.201,-2.2062,-2.2069,-2.2087,-2.2151,-2.2155,-2.2115,-2.2118,-2.2119,-2.2121,0,0,0,0,0,0,0,-2.1831,-2.1841,-2.1946,-2.193,-2.1934,-2.1938,-2.1946,-2.199,-2.2027,-2.1987,-2.1988,-2.1997,-2.2064,-2.2082,-2.2089,-2.2156,-2.2115,-2.2119,-2.2121,-2.2123,-2.2263,-2.2264,0,0,0,0,0,0,-2.1822,-2.1837,-2.1943,-2.1948,-2.1882,-2.1941,-2.1951,-2.1975,-2.2027,-2.2034,-2.1998,-2.1998,-2.2076,-2.2084,-2.2092,-2.2148,-2.2119,-2.2123,-2.2126,-2.2262,-2.2263,-2.2264,0,0,0,0,0,0,-2.1819,-2.1832,-2.194,-2.1893,-2.1907,-2.1944,-2.1972,-2.1978,-2.1996,-2.2036,-2.2043,-2.2011,-2.2075,-2.2086,-2.2133,-2.2151,-2.2125,-2.2129,-2.226,-2.2262,-2.2264,-2.2262,0,0,0,0,0,0,-2.1815,-2.183,-2.1848,-2.1893,-2.191,-2.198,-2.1973,-2.198,-2.2004,-2.2004,-2.2049,-2.2056,-2.2075,-2.2127,-2.2138,-2.2157,-2.2133,-2.2259,-2.2261,-2.2263,-2.226,-2.2263,-2.2266,0,0,0,0,0,-2.181,-2.1844,-2.1849,-2.1862,-2.1933,-2.1981,-2.199,-2.2012,-2.2005,-2.2023,-2.2049,-2.2054,-2.2148,-2.2132,-2.2144,-2.2164,-2.2258,-2.226,-2.2263,-2.2259,-2.2263,-2.2266,0,0,0,0,0,0,-2.1799,-2.185,-2.1856,-2.1906,-2.1939,-2.1984,-2.2007,-2.2015,-2.2051,-2.2049,-2.2075,-2.2085,-2.2131,-2.2153,-2.2134,-2.2212,-2.2202,-2.2208,-2.2195,-2.2199,-2.2202,-2.2195,-2.2136,0,0,0,0,0,-2.1803,-2.1838,-2.1881,-2.1921,-2.1937,-2.1969,-2.1991,-2.2005,-2.2041,-2.2055,-2.2084,-2.2117,-2.2154,-2.2178,-2.2215,-2.2264,-2.2274,-2.2284,-2.2287,-2.2289,-2.2293,-2.2321,-2.2325,-2.2273,-2.2273,-2.2273,0,0,-2.181,-2.1843,-2.1863,-2.192,-2.1947,-2.1983,-2.1981,-2.2019,-2.2046,-2.206,-2.2107,-2.213,-2.2169,-2.2218,-2.2241,-2.2237,-2.231,-2.2292,-2.2294,-2.2296,-2.2324,-2.2329,-2.2333,-2.2275,-2.2274,-2.2274,0,0,-2.1842,-2.1871,-2.1907,-2.1934,-2.1976,-2.1997,-2.2006,-2.205,-2.2065,-2.2113,-2.2125,-2.2157,-2.222,-2.2248,-2.227,-2.2314,-2.232,-2.2325,-2.2338,-2.2365,-2.2369,-2.2373,-2.2388,-2.2393,-2.2329,-2.2329,-2.2329,0,-2.1846,-2.1901,-2.1924,-2.1962,-2.1986,-2.2002,-2.2039,-2.2065,-2.2116,-2.2132,-2.2128,-2.2208,-2.2235,-2.2291,-2.2302,-2.232,-2.233,-2.2319,-2.2367,-2.2371,-2.2375,-2.2389,-2.2395,-2.2329,-2.2329,-2.2329,-2.2329,0,-2.1903,-2.1941,-2.1966,-2.2015,-2.2042,-2.2079,-2.2108,-2.2133,-2.2145,-2.2167,-2.2215,-2.225,-2.2293,-2.2308,-2.232,-2.2365,-2.2361,-2.2362,-2.2353,-2.238,-2.2394,-2.2399,-2.233,-2.233,-2.233,-2.2329,0,0,-2.1929,-2.1992,-2.2,-2.2023,-2.2071,-2.21,-2.2138,-2.2181,-2.2202,-2.2237,-2.2269,-2.2323,-2.2324,-2.2349,-2.2365,-2.2388,-2.242,-2.2386,-2.2387,-2.239,-2.2472,-2.247,-2.2476,-2.2425,-2.2427,-2.2428,-2.2468,0,-2.1966,-2.2034,-2.2057,-2.2113,-2.2149,-2.2165,-2.2198,-2.223,-2.2252,-2.2285,-2.2309,-2.2347,-2.2345,-2.2361,-2.2385,-2.2411,-2.2437,-2.2409,-2.2455,-2.2456,-2.2443,-2.2484,-2.2482,-2.2519,-2.2474,-2.2475,-2.2476,0,-2.2017,-2.2054,-2.2114,-2.2157,-2.2173,-2.2202,-2.2243,-2.2275,-2.2313,-2.2327,-2.2356,-2.237,-2.241,-2.24,-2.2456,-2.2436,-2.2457,-2.2473,-2.2475,-2.2479,-2.2466,-2.2488,-2.2531,-2.2536,-2.2485,-2.2484,-2.2483,0,-2.2029,-2.2093,-2.2137,-2.2156,-2.2208,-2.2229,-2.2251,-2.2288,-2.2313,-2.2349,-2.2365,-2.2406,-2.2428,-2.2459,-2.2483,-2.2474,-2.2537,-2.2529,-2.2549,-2.2549,-2.2561,-2.2559,-2.2607,-2.2576,-2.2576,-2.2576,-2.2576,0,-2.2067,-2.2103,-2.2143,-2.217,-2.2211,-2.2237,-2.2277,-2.2301,-2.2334,-2.2365,-2.2382,-2.2412,-2.2443,-2.2477,-2.2497,-2.254,-2.255,-2.2562,-2.2567,-2.256,-2.2558,-2.2573,-2.2571,-2.2577,-2.2577,-2.2577,-2.2576,0,-2.2086,-2.2115,-2.2164,-2.221,-2.2222,-2.225,-2.2289,-2.2316,-2.2339,-2.2379,-2.239,-2.2426,-2.2467,-2.2495,-2.2547,-2.2561,-2.2607,-2.2612,-2.2594,-2.2596,-2.2615,-2.2612,-2.2672,-2.2681,-2.2645,-2.2645,-2.2646,0,-2.2108,-2.2136,-2.2185,-2.2207,-2.223,-2.2266,-2.2292,-2.2319,-2.2345,-2.239,-2.2412,-2.2454,-2.2489,-2.2553,-2.2584,-2.2624,-2.2629,-2.2647,-2.2635,-2.2627,-2.2628,-2.2626,-2.2629,-2.2649,-2.2649,-2.2649,-2.2649,0,-2.2143,-2.2156,-2.2191,-2.2232,-2.2262,-2.2296,-2.2329,-2.2347,-2.2381,-2.2408,-2.245,-2.2478,-2.2531,-2.2573,-2.2616,-2.2639,-2.265,-2.2653,-2.266,-2.2653,-2.2641,-2.2647,-2.2598,-2.2651,-2.2651,-2.2651,-2.2651,-2.2651,-2.2163,-2.2189,-2.2227,-2.2267,-2.2295,-2.2326,-2.2354,-2.2381,-2.2416,-2.2462,-2.2477,-2.252,-2.2558,-2.2617,-2.2641,-2.2676,-2.2674,-2.2684,-2.2686,-2.2688,-2.2688,-2.2637,-2.2684,-2.2684,-2.2684,-2.2684,-2.2684,0,-2.2198,-2.2224,-2.226,-2.2307,-2.2338,-2.2346,-2.2384,-2.2409,-2.2447,-2.2482,-2.2516,-2.2565,-2.2605,-2.264,-2.2681,-2.2702,-2.2708,-2.2712,-2.271,-2.2716,-2.2687,-2.2676,-2.2707,-2.2707,-2.2707,-2.2707,-2.2707,-2.2707,-2.222,-2.2264,-2.2281,-2.2339,-2.2365,-2.2408,-2.2429,-2.2458,-2.2486,-2.2539,-2.2573,-2.2595,-2.263,-2.2675,-2.2712,-2.2721,-2.2735,-2.2738,-2.2748,-2.272,-2.2718,-2.2715,-2.2705,-2.2741,-2.2741,-2.2774,-2.2774,-2.2775]}]]